www.pogodaiklimat.ru

Погода и климат >> Архив погоды >> Россия >> город Санкт-Петербург >> Санкт-Петербург


АРХИВ ПОГОДЫ в Санкт-Петербурге

Время (UTC), дата Ветер
(напр.,м/с)
 
Видим.   Явления Облачность Т
(С)
Тd
(С)
f
(%)
Тe
(С)
Тes
(С)
Комфортность P
(гПа)
Po
(гПа)
Тmin
(С)
Tmax
(С)
R
(мм)
R24
(мм)
S
(см)
00 12.08 Ю 1 н/о н/о +15.2 +13.8 91 +16 +16 по сезону 1015.3 1014.6
03 12.08 штиль 0 10 км ясно +14.5 +13.2 92 +14 +14 по сезону 1015.7 1015.0 +14.2
06 12.08 Ю 2 10 км 5/0
[Ac trans]
+21.4 +12.8 58 +24 +27 комфорт 1014.8 1014.1 +14.2
09 12.08 ЮЗ 4 10 км 3/0
[Ac trans]
+24.3 +13.8 52 +27 +32 жарко 1014.1 1013.4
12 12.08 Ю 3 10 км 9/0
[Ac trans]
+25.8 +14.2 49 +28 +32 жарко 1012.6 1011.9
15 12.08 Ю 3 10 км 9/0
[Ac trans]
+25.5 +15.5 54 +29 +30 душно 1010.9 1010.2
18 12.08 ЮВ 2 10 км 3/0
[As trans]
+23.8 +16.8 65 +27 +27 жарко 1008.7 1008.0 +26.6
21 12.08 Ю 3 10 км 9/0
[Ac trans]
+22.3 +16.8 71 +27 +27 душно 1009.1 1008.3
00 13.08 В 1 10 км слабый ливневой дождь {гроза} 10/10 300 м
[Cb calv]
+19.5 +18.5 94 +23 +23 комфорт 1008.6 1007.9
03 13.08 Ю 2 10 км {ливн. осадки} 9/0
[Ac trans Cc]
+19.8 +17.7 88 +23 +23 комфорт 1008.2 1007.4 +19.3 6
06 13.08 Ю 2 10 км в посл. час дождь {ливн. осадки} 10/6 300 м
[Sc diur, vesp As op]
+20.3 +17.2 82 +24 +24 комфорт 1007.6 1006.9 +19.3 6
09 13.08 З 3-10
{10}
10 км {ливн. осадки} 10/10 420 м
[Cu med, cong]
+21.1 +17.1 78 +25 +25 комфорт 1007.9 1007.2
12 13.08 З 2
{10}
10 км {ливн. осадки} 9/4 600 м
[Cu med, cong Cs]
+21.9 +16.8 73 +26 +30 душно 1008.8 1008.1
15 13.08 СЗ 2 10 км 9/6 600 м
[Cu med, cong Ac trans Ci fib]
+20.7 +15.4 72 +24 +25 комфорт 1009.5 1008.8 0.6
18 13.08 З 1 10 км 5/3 600 м
[Sc diur, vesp Ac trans Ci fib]
+18.7 +15.9 84 +21 +21 комфорт 1009.9 1009.2 +22.9
21 13.08 ЮЗ 2 10 км 4/0
[Ac trans Ci fib]
+18.2 +14.0 76 +19 +19 тепло 1010.4 1009.7
00 14.08 З 2 10 км 4/3 300 м
[Sc diur, vesp Ac trans]
+17.2 +14.1 82 +18 +18 тепло 1011.8 1011.1
03 14.08 З 3 10 км 9/8 400 м
[Cu med, cong Ac trans]
+16.7 +14.3 86 +16 +16 по сезону 1012.9 1012.2 +16.5
06 14.08 СЗ 3 10 км 9/9 840 м
[Sc diur, vesp]
+17.0 +11.2 69 +17 +17 по сезону 1015.6 1014.8 +16.5
09 14.08 10 км н/о +17.9 +11.2 65 +18 +22 по сезону 1018.0 1017.3
12 14.08 З 4 10 км ясно +19.0 +9.7 55 +20 +25 по сезону 1019.9 1019.1
15 14.08 З 3 10 км 1/1 600 м
[Cu hum]
+19.0 +10.8 59 +20 +22 тепло 1021.1 1020.4
18 14.08 З 2 10 км ясно +16.9 +10.4 66 +17 +17 по сезону 1022.7 1021.9 +19.7
21 14.08 З 2 10 км ясно +16.6 +12.1 75 +17 +17 по сезону 1024.3 1023.6
00 15.08 Ю 1 10 км ясно +14.4 +11.9 85 +15 +15 по сезону 1025.1 1024.4
03 15.08 З 1 10 км ясно +14.8 +13.2 90 +15 +15 по сезону 1026.1 1025.4 +14.1
06 15.08 ЮЗ 2 10 км ясно +17.7 +14.0 79 +18 +22 тепло 1027.2 1026.5 +14.1
09 15.08 З 2 10 км 8/4 700 м
[Cu hum Ac As Cs]
+19.3 +12.1 63 +21 +25 комфорт 1028.0 1027.3
12 15.08 СЗ 2 10 км 5/0
[Ac As]
+21.6 +7.8 41 +23 +28 комфорт 1027.9 1027.2
15 15.08 ЮЗ 1 10 км ясно +21.7 +7.5 40 +23 +25 комфорт 1027.2 1026.5
18 15.08 штиль 0 10 км 3/0
[Ci fib]
+16.7 +8.8 60 +17 +17 по сезону 1027.4 1026.7 +22.4
21 15.08 штиль 0 10 км ясно +14.0 +10.0 77 +14 +14 по сезону 1027.5 1026.7
00 16.08 штиль 0 10 км ясно +12.5 +10.5 88 +12 +12 прохладно 1027.4 1026.6
03 16.08 штиль 0 10 км ясно +12.3 +10.1 86 +12 +12 прохладно 1027.5 1026.7 +12.1
06 16.08 Ю 2 10 км ясно +18.6 +8.9 53 +20 +24 тепло 1026.8 1026.1 +12.1
09 16.08 Ю 2 10 км 3/1 600 м
[Cu hum Ci fib]
+22.0 +8.7 43 +23 +32 комфорт 1026.2 1025.5
12 16.08 Ю 3 10 км 6/6 600 м
[Cu med, cong]
+23.1 +9.6 42 +25 +28 комфорт 1024.9 1024.2
15 16.08 Ю 2 10 км 5/3 600 м
[Cu med, cong Ac trans]
+22.7 +9.7 44 +24 +26 комфорт 1023.8 1023.1
18 16.08 Ю 2 10 км 9/6 600 м
[Sc diur, vesp Ac trans]
+21.4 +10.1 48 +23 +23 комфорт 1023.5 1022.8 +23.7
21 16.08 Ю 1 10 км 9/6 600 м
[Sc diur, vesp Ac As]
+20.3 +9.5 50 +23 +23 комфорт 1023.3 1022.6
00 17.08 Ю 2 10 км 4/0
[Ac trans]
+18.8 +11.2 61 +20 +20 тепло 1022.8 1022.1
03 17.08 В 1 10 км 9/5 600 м
[Sc Ac trans]
+17.5 +12.0 70 +19 +19 тепло 1022.4 1021.7 +17.5
06 17.08 В 1 10 км 9/6 600 м
[Sc diur, vesp Ac As]
+20.1 +13.1 64 +23 +24 комфорт 1022.3 1021.5 +17.5
09 17.08 ЮВ 2 10 км 9/5 600 м
[Cu med, cong Ac trans Cs]
+22.7 +13.7 57 +26 +29 жарко 1021.4 1020.7
12 17.08 В 2 10 км 10/5 600 м
[Cu med, cong Ac As]
+22.5 +15.1 63 +26 +27 жарко 1021.0 1020.2
15 17.08 Ю 1 4000 м слабый ливневой дождь 10/10 300 м
[Cb calv]
+22.9 +16.9 69 +28 +28 душно 1019.3 1018.6 0.1
18 17.08 СЗ 1 10 км в посл. час ливневой дождь {гроза} 10/10 300 м
[Sc diur, vesp]
+20.4 +18.7 90 +25 +25 комфорт 1018.9 1018.2 +23.9 9
21 17.08 В 1 10 км 4/1 300 м
[Sc diur, vesp Ac trans Ci fib]
+19.6 +17.6 88 +23 +23 комфорт 1018.5 1017.8
00 18.08 Ю 1 10 км 8/1 300 м
[Sc diur, vesp Ac trans Ci fib]
+19.1 +17.0 88 +22 +22 комфорт 1018.2 1017.5
03 18.08 ЮВ 1 10 км {ливн. осадки} 9/3 300 м
[Sc diur, vesp Ac trans Ci fib]
+18.5 +16.5 88 +20 +20 тепло 1017.4 1016.7 +18.0 9
06 18.08 ЮЗ 2 10 км {ливн. осадки} 8/0
[Ac trans]
+20.3 +15.7 75 +24 +26 комфорт 1017.6 1016.9 +18.0 0.5
09 18.08 ЮЗ 3 10 км 9/6 600 м
[Sc diur, vesp Ac trans]
+21.0 +14.7 67 +24 +26 комфорт 1017.5 1016.8
12 18.08 ЮЗ 3 10 км 5/4 600 м
[Cu hum Ac trans Cs]
+22.9 +15.5 63 +27 +31 душно 1016.9 1016.2
15 18.08 ЮЗ 1 10 км 9/4 600 м
[Cu hum Ac trans Cs]
+21.1 +16.4 75 +25 +25 комфорт 1016.5 1015.8
18 18.08 ЮЗ 1 10 км 10/0
[Ac trans Cs]
+20.3 +15.6 74 +24 +24 комфорт 1016.2 1015.5 +23.1
21 18.08 Ю 1 10 км 9/0
[Ac trans Cs]
+20.0 +14.8 72 +23 +23 комфорт 1015.6 1014.9

 

Местоположение метеостанции Санкт-Петербург (город Санкт-Петербург, Россия): широта 59.97 долгота 30.30 высота над уровнем моря 6 м.

В архиве по умолчанию представлена погода в Санкт-Петербурге за последнюю неделю. Архивные данные за месяц целиком и за предыдущие месяцы, начиная с января 2011 года, Вы можете получить, выбрав интересующий диапазон дат из раскрывающегося списка и нажав кнопку "Ввод!".

Внимание! Время в таблицах - всемирное. Для получения местного времени необходимо прибавить поправку, которая в Санкт-Петербурге равна 3 ч.

Смотрите также архив погоды в соседних городах и на ближайших метеорологических станциях:

Погода в Воейково (город Санкт-Петербург, Россия) (22 км)
Погода в Ломоносове (город Санкт-Петербург, Россия) (29 км)
Погода в Кронштадте (город Санкт-Петербург, Россия) (30 км)
Погода в Шлиссельбурге (Ленинградская область, Россия) (39 км)
Погода в Рощино (Ленинградская область, Россия) (48 км)
Погода в Шепелево (Ленинградская область, Россия) (58 км)
Погода в Сосново (Ленинградская область, Россия) (65 км)
Погода в Белогорке (Ленинградская область, Россия) (70 км)
Погода в Волосово (Ленинградская область, Россия) (75 км)
Погода в Озерках (Ленинградская область, Россия) (77 км)

Пояснения к столбцам:

Ветер - указаны скорость ветра в м/с - средняя за 10 мин, порывы в срок и между сроками (в фигурных скобках) и направление, откуда дует ветер: С - северный, СВ - северо-восточный, В - восточный, ЮВ - юго-восточный, Ю - южный, ЮЗ - юго-западный, З - западный, СЗ - северо-западный.
Видимость - горизонтальная дальность видимости в метрах или километрах. При видимости от 1 до 10 км при отсутствии осадков обычно наблюдается дымка, при ухудшении видимости до 1 км и менее - туман. В сухую погоду видимость может ухудшаться дымом, пылью или мглою.
Явления - указаны атмосферные явления, наблюдавшиеся в срок или в последний час перед сроком; фигурными скобками обозначены явления, наблюдавшиеся между сроками (за 1-3 часа до срока); квадратными скобками обозначены град или гололедные отложения с указанием их диаметра в мм.
Облачность - указаны через наклонную черту общая и нижняя облачность в баллах и высота нижней границы облаков в метрах; квадратными скобками обозначены формы облаков: Ci - перистые, Cs - перисто-слоистые, Cc - перисто-кучевые, Ac - высококучевые, As - высокослоистые, Sc - слоисто-кучевые, Ns - слоисто-дождевые, Cu - кучевые, Cb - кучево-дождевые. Подробнее классификацию облаков см. в Атласе облаков (PDF).
T - Температура воздуха - температура, измеренная на высоте 2 м над землей.
Td - Температура точки росы - температура, при понижении до которой содержащийся в воздухе водяной пар достигнет насыщения.
f - Относительная влажность воздуха - влажноcть воздуха, измеренная на высоте 2 м над землей.
Te - Эффективная температура - температура, которую ощущает одетый по сезону человек в тени. Характеристика душности погоды. При расчете учитывается влияние влажности воздуха и скорости ветра на теплоощущения человека.
Tes - Эффективная температура на солнце - температура, которую ощущает человек, с поправкой на солнечный нагрев. Характеристика знойности погоды. Зависит от высоты солнца над горизонтом, облачности и скорости ветра. Ночью, в пасмурную погоду, а также при ветре 12 м/с и более поправка равна нулю.
P - Атмосферное давление - приведенное к уровню моря атмосферное давление.
Po - Атмосферное давление - измеренное на уровне метеостанции атмосферное давление.
Tmin - Минимальная температура - минимум температуры воздуха на высоте 2 м над землей.
Tmax - Максимальная температура - максимум температуры воздуха на высоте 2 м над землей.
R - Количество осадков - Количество выпавших осадков за период времени, мм. При наведении курсора мыши на число - период времени, за который выпало указанное количество осадков.
R24 - Количество осадков - Количество выпавших осадков за 24 часа, мм.
S - Снежный покров - Высота снежного покрова, см. При наведении курсора мыши на число - состояние снежного покрова и степень покрытия местности в баллах.